Back to catalog

STARLINK-6149

AliveCommunicationsVLEO
NORAD 57122·PAYLOAD·🇺🇸 United States

Launched Jun 23, 2023 from Cape Canaveral Space Force Station

Loading…

Next Passes (next 24 hours)

TLE

FreshSource: CelesTrak SupGP

Epoch: Sep 15, 2026, 02:24 UTC

1 57122C 23090X   26258.10048611  .00012665  00000+0  45873-3 0  2582
2 57122  43.0027 292.1743 0001294 264.5843 202.2179 15.27570762    17

Track STARLINK-6149 in real time with AllMySat

Download on the App Store